Location: Newark
(50.0306°N, 2.3272°E)
Time: 12:12:05
(UTC+00:00)

A-11 Canister half - Pass Details

Date: 16 December 2019
Orbit: 1525 x 1684 km, 47.3° (Epoch: 21 January)

Event Time Altitude Azimuth Distance (km) Brightness Sun altitude
Rises 06:58:01 0° 262° (W) 4,922 11.2 -7.0°
Reaches altitude 10° 07:01:10 10° 262° (W) 3,942 10.7 -6.5°
Maximum altitude 07:11:19 78° 179° (S) 1,719 9.4 -5.1°
Drops below altitude 10° 07:21:24 10° 95° (E) 3,915 12.3 -3.7°
Sets 07:24:31 0° 94° (E) 4,887 12.9 -3.3°
